Dewpoint
66 66 65 65 64 64 65 65 65 67 67 67 67 67 67 66 65 64 64 63 63 63
64 66 66 66 66 66 66 66 66 66 67 67 67 67 67 66 65 65 64 64 64 63
57 59 61 67 66 66 66 67 67 67 66 66 67 67 67 67 66 65 65 65 64 64
58 61 61 61 62 64 64 64 66 67 67 66 66 67 67 67 66 65 65 65 64 64
53 58 59 59 60 61 62 64 64 65 66 66 66 66 66 66 66 65 64 64 64 64
50 54 57 57 57 58 59 61 62 63 63 65 66 66 65 66 66 65 65 64 65 64
45 50 54 54 54 54 55 57 58 60 62 62 62 63 64 64 65 64 64 64 63 63
44 46 49 51 51 51 51 52 54 56 58 60 59 59 60 60 61 60 59 57 58 57
41 43 46 49 50 49 48 49 50 51 53 55 57 49 47 53 58 57 55 53 52 52
39 40 41 46 49 48 46 45 46 47 49 51 52 44 44 43 56 55 55 53 51 49
36 37 35 42 43 42 46 45 45 46 46 47 47 42 42 40 49 53 53 52 51 51
36 36 36 35 36 35 35 36 37 43 44 44 44 42 41 42 44 42 38 46 48 49
35 36 36 37 36 37 43 38 38 36 40 40 41 41 39 41 40 40 36 39 41 40
35 36 37 37 40 42 42 40 40 38 39 39 40 41 39 39 42 39 36 36 35 36
Lifted_Index
-6 -5 -6 -6 -6 -6 -6 -6 -7 -7 -7 -7 -7 -7 -7 -7 -6 -6 -6 -6 -5 -5
-5 -5 -5 -6 -6 -6 -6 -7 -7 -7 -7 -7 -7 -7 -7 -7 -7 -6 -6 -6 -6 -5
-3 -3 -4 -5 -6 -7 -7 -7 -7 -7 -7 -7 -8 -8 -8 -7 -7 -7 -7 -6 -6 -6
-2 -2 -2 -3 -4 -6 -7 -7 -7 -7 -7 -7 -7 -7 -7 -7 -7 -7 -7 -7 -7 -7
-0 -1 -1 -2 -3 -4 -5 -6 -6 -6 -7 -7 -7 -7 -7 -7 -7 -7 -7 -7 -7 -7
2 1 0 -0 -1 -2 -3 -4 -5 -5 -6 -6 -6 -6 -6 -7 -7 -7 -6 -6 -7 -7
5 4 3 2 1 0 -1 -2 -3 -4 -5 -5 -6 -6 -6 -6 -6 -6 -6 -6 -7 -7
7 7 6 4 4 4 3 2 0 -2 -3 -4 -5 -5 -5 -6 -6 -6 -6 -6 -6 -6
8 8 7 6 6 6 6 5 4 2 0 -2 -3 -4 -5 -5 -5 -5 -5 -6 -6 -5
9 9 9 8 7 6 7 7 7 6 4 2 -0 -2 -3 -3 -3 -4 -4 -4 -4 -4
9 9 9 9 8 7 7 7 7 8 7 6 3 1 -0 -1 -1 -2 -2 -3 -3 -3
9 9 9 9 9 8 7 7 8 8 8 8 7 4 2 1 -0 -0 -1 -2 -2 -2
8 8 8 9 9 8 8 7 8 8 9 9 9 7 5 3 1 0 -0 -1 -1 -1
7 7 8 8 8 8 8 7 7 8 9 10 10 9 6 4 3 1 0 -0 -0 -0